Temp
10 10 10 10 9 9 10 11 11 11 11 11 11 10 10 10 10 10 10 9 9 9
10 10 9 9 9 10 9 9 9 11 11 11 10 10 10 10 10 9 9 9 9 9
9 9 9 9 8 9 8 8 7 9 10 10 10 10 10 10 10 9 9 9 8 8
9 8 8 8 7 7 8 6 8 8 9 10 10 10 9 9 9 9 9 9 9 8
8 9 8 7 7 7 7 6 7 8 9 9 9 9 9 9 9 9 9 9 9 9
8 8 8 8 8 8 7 7 7 6 7 8 8 8 8 8 8 9 9 9 9 9
8 8 7 8 8 8 8 8 7 7 7 8 7 7 7 8 9 8 8 9 9 9
6 7 7 7 7 7 7 7 7 7 8 8 8 7 7 7 7 8 8 7 7 7
5 5 6 7 7 7 7 7 7 7 7 7 8 8 7 8 8 8 7 8 7 6
3 4 5 5 6 6 7 7 7 7 7 8 8 8 8 7 7 7 7 7 7 6
1 2 3 4 5 5 6 6 6 7 6 7 7 7 7 7 7 7 7 6 6 6
-0 0 1 2 3 4 5 5 5 5 6 6 6 6 6 6 6 6 6 6 6 6
-1 -0 0 0 1 2 3 3 4 4 4 4 5 5 5 5 5 5 6 5 6 5
-2 -1 -0 -1 -0 0 1 1 2 3 3 4 4 4 4 5 5 5 5 5 5 5
Height
1456 1459 1462 1467 1473 1477 1482 1487 1495 1501 1506 1510 1516 1521 1526 1529 1534 1537 1539 1543 1547 1550
1452 1451 1451 1457 1464 1471 1476 1484 1489 1496 1501 1506 1511 1516 1519 1524 1528 1532 1536 1539 1543 1546
1451 1451 1453 1457 1460 1464 1469 1478 1485 1492 1497 1502 1505 1511 1515 1519 1523 1527 1531 1534 1538 1541
1451 1453 1454 1456 1458 1461 1464 1472 1475 1488 1494 1497 1501 1506 1510 1514 1518 1522 1526 1529 1533 1536
1452 1452 1454 1457 1461 1463 1466 1472 1473 1483 1489 1493 1497 1500 1504 1509 1512 1516 1519 1523 1527 1530
1452 1454 1455 1457 1460 1463 1466 1467 1473 1482 1485 1487 1491 1495 1499 1503 1506 1510 1514 1518 1521 1525
1449 1453 1454 1456 1459 1458 1462 1466 1470 1473 1476 1478 1485 1491 1495 1497 1500 1503 1509 1512 1515 1518
1447 1451 1451 1454 1458 1459 1461 1467 1471 1472 1474 1478 1483 1486 1489 1491 1492 1497 1501 1503 1507 1511
1449 1451 1452 1454 1455 1459 1461 1465 1468 1470 1470 1476 1478 1483 1484 1487 1489 1492 1496 1496 1500 1503
1450 1452 1453 1455 1457 1459 1461 1464 1465 1468 1470 1474 1477 1478 1480 1482 1484 1486 1488 1490 1493 1496
1452 1452 1455 1456 1458 1459 1460 1462 1464 1466 1468 1471 1474 1475 1476 1479 1479 1480 1482 1485 1487 1490
1456 1455 1456 1456 1457 1458 1460 1460 1462 1464 1467 1469 1471 1472 1472 1474 1475 1477 1478 1480 1482 1485
1456 1455 1455 1456 1456 1458 1458 1460 1461 1464 1465 1466 1467 1468 1468 1470 1472 1473 1473 1475 1476 1480
1457 1456 1456 1456 1456 1457 1457 1458 1459 1459 1459 1462 1464 1465 1465 1467 1469 1470 1470 1471 1473 1475
Wind_Speed
43 45 44 43 43 43 43 39 40 41 38 36 33 32 30 28 28 29 29 28 28 28
24 43 45 47 44 43 39 40 42 40 39 37 34 32 31 30 29 30 31 29 27 26
12 18 30 36 41 41 41 39 36 39 39 36 35 34 32 31 30 31 31 31 30 29
5 6 21 29 33 32 30 29 29 34 37 36 34 33 32 32 32 32 30 31 32 32
2 4 3 15 19 21 26 27 23 27 28 30 32 32 31 31 32 32 32 31 31 31
6 9 12 9 10 5 4 26 30 28 25 23 26 29 31 31 30 32 31 31 31 30
14 14 16 12 9 10 7 6 11 27 18 16 19 24 32 32 30 28 28 29 30 30
13 10 12 19 17 16 17 14 15 14 10 10 14 18 19 23 24 26 30 31 33 35
13 9 12 11 11 12 19 22 20 17 15 18 17 24 19 21 25 26 29 31 36 36
10 10 8 10 10 8 9 11 11 13 12 13 16 19 20 18 18 18 19 24 28 31
10 7 6 6 8 9 9 7 8 11 11 11 14 18 15 16 18 17 18 20 20 20
12 9 5 4 5 5 8 9 11 11 12 11 13 16 15 17 17 16 18 19 19 19
14 11 8 4 2 4 4 5 10 12 13 13 14 16 18 18 18 18 18 19 18 17
14 12 9 7 4 3 3 5 7 7 7 9 12 13 14 15 15 17 15 14 14 15
Wind_Direction
232 233 232 227 225 222 221 226 222 217 214 214 215 217 219 221 222 220 221 219 223 224
251 227 205 213 223 223 225 226 222 218 217 215 216 218 220 221 221 220 222 226 226 227
241 218 210 217 216 215 215 219 216 221 218 217 218 219 221 224 223 225 224 226 229 231
31 348 225 213 210 214 213 207 205 228 222 220 221 222 223 225 227 228 229 230 231 233
152 111 229 216 212 203 192 194 201 223 218 221 223 225 226 227 228 230 232 234 234 235
214 195 176 158 208 110 242 209 206 209 209 208 219 224 228 228 232 233 234 238 240 240
176 197 207 219 202 184 204 201 209 215 201 205 217 226 229 235 234 235 237 240 243 243
83 152 172 200 205 180 169 179 190 205 219 216 204 211 220 225 227 234 241 239 244 243
92 96 108 139 167 199 210 214 211 214 201 202 212 232 239 243 239 240 240 250 248 250
97 105 109 109 129 148 175 189 194 206 210 218 227 224 227 233 236 240 248 250 253 249
60 97 115 135 154 151 156 176 199 225 229 226 232 238 242 234 237 241 251 255 260 253
29 39 61 139 163 181 198 196 209 228 234 236 242 240 234 238 244 244 246 246 249 254
15 15 15 13 196 209 226 238 228 231 237 239 244 247 250 246 246 251 256 253 248 243
10 4 358 359 326 271 255 255 248 236 231 239 243 242 248 245 244 243 238 239 242 244